Location: Lafig�re
(44.4503°N, 4.0357°E)
Time: 17:40:16
(UTC+00:00)

S-56A Canister/Altair - Pass Details

Date: 21 January 2021
Orbit: 631 x 2501 km, 38.9° (Epoch: 04 March)

Event Time Altitude Azimuth Distance (km) Brightness Sun altitude
Rises 08:45:50 0° 269° (W) 3,493 10.5 12.6°
Reaches altitude 10° 08:48:43 10° 253° (WSW) 2,777 10.2 12.9°
Maximum altitude 08:53:36 21° 207° (SSW) 2,451 10.5 13.5°
Drops below altitude 10° 08:59:55 10° 163° (SSE) 3,719 12.4 14.3°
Sets 09:04:37 0° 150° (SSE) 5,078 13.5 14.9°
